Location: Pradons
(44.4746°N, 4.3578°E)
Time: 22:43:46
(UTC+00:00)

Cosmos 1825 - Pass Details

Date: 09 April 2020
Orbit: 502 x 509 km, 82.5° (Epoch: 05 June)

Event Time Altitude Azimuth Distance (km) Brightness Sun altitude
Rises 20:01:56 0° 10° (N) 2,627 6.1 -17.6°
Reaches altitude 10° 20:05:02 10° 38° (NE) 1,733 4.8 -18.1°
Enters shadow 20:05:54 12° 51° (NE) 1,592 4.5 -18.2°
